TimeCDT,TemperatureF,Dew PointF,Humidity,Sea Level PressureIn,VisibilityMPH,Wind Direction,Wind SpeedMPH,Gust SpeedMPH,PrecipitationIn,Events,Conditions,WindDirDegrees,DateUTC
12:53 AM,28.9,21.0,72,30.34,10.0,Calm,Calm,-,N/A,,Mostly Cloudy,0,2013-03-27 05:53:00
1:53 AM,28.0,21.0,75,30.34,9.0,SW,3.5,-,N/A,,Mostly Cloudy,230,2013-03-27 06:53:00
2:53 AM,28.0,21.0,75,30.34,8.0,Calm,Calm,-,N/A,,Mostly Cloudy,0,2013-03-27 07:53:00
3:53 AM,27.0,21.0,78,30.34,7.0,Calm,Calm,-,N/A,,Mostly Cloudy,0,2013-03-27 08:53:00
4:53 AM,25.0,21.0,85,30.34,9.0,Calm,Calm,-,N/A,,Scattered Clouds,0,2013-03-27 09:53:00
5:53 AM,24.1,19.9,84,30.35,9.0,SW,4.6,-,N/A,,Scattered Clouds,220,2013-03-27 10:53:00
6:53 AM,23.0,19.0,85,30.35,6.0,SW,3.5,-,N/A,,Partly Cloudy,220,2013-03-27 11:53:00
7:53 AM,24.1,19.9,84,30.37,10.0,Calm,Calm,-,N/A,,Scattered Clouds,0,2013-03-27 12:53:00
8:53 AM,26.1,21.0,81,30.37,10.0,Calm,Calm,-,N/A,,Scattered Clouds,0,2013-03-27 13:53:00
9:53 AM,30.9,21.9,69,30.37,10.0,Calm,Calm,-,N/A,,Scattered Clouds,0,2013-03-27 14:53:00
10:53 AM,36.0,19.0,50,30.37,9.0,Calm,Calm,-,N/A,,Scattered Clouds,0,2013-03-27 15:53:00
11:53 AM,37.9,17.1,43,30.37,10.0,SE,3.5,-,N/A,,Scattered Clouds,130,2013-03-27 16:53:00
12:53 PM,39.0,15.1,38,30.36,10.0,SSE,3.5,-,N/A,,Scattered Clouds,160,2013-03-27 17:53:00
1:53 PM,39.9,16.0,38,30.36,10.0,Calm,Calm,-,N/A,,Scattered Clouds,0,2013-03-27 18:53:00
2:53 PM,43.0,16.0,34,30.34,10.0,Calm,Calm,-,N/A,,Scattered Clouds,0,2013-03-27 19:53:00
3:53 PM,42.1,16.0,35,30.33,10.0,Calm,Calm,-,N/A,,Partly Cloudy,0,2013-03-27 20:53:00
4:53 PM,42.1,17.1,37,30.32,10.0,SSW,4.6,-,N/A,,Partly Cloudy,210,2013-03-27 21:53:00
5:53 PM,42.1,18.0,38,30.32,10.0,Variable,4.6,-,N/A,,Clear,0,2013-03-27 22:53:00
6:53 PM,41.0,18.0,40,30.33,10.0,SW,5.8,-,N/A,,Clear,230,2013-03-27 23:53:00
7:53 PM,39.0,18.0,43,30.34,10.0,WSW,5.8,-,N/A,,Clear,240,2013-03-28 00:53:00
8:53 PM,37.0,19.0,48,30.35,10.0,WSW,4.6,-,N/A,,Clear,250,2013-03-28 01:53:00
9:53 PM,34.0,19.9,56,30.36,10.0,WNW,5.8,-,N/A,,Clear,290,2013-03-28 02:53:00
10:53 PM,35.1,19.0,52,30.36,10.0,Calm,Calm,-,N/A,,Clear,0,2013-03-28 03:53:00
11:53 PM,34.0,19.9,56,30.37,10.0,Calm,Calm,-,N/A,,Clear,0,2013-03-28 04:53:00